Change the Weather History Date:

Wednesday, March 19, 2014

  Actual Average Record
Temperature  
Mean Temperature 68 °F -  
Max Temperature 89 °F 82 °F - ()
Min Temperature 48 °F 52 °F - ()
Cooling Degree Days 4    
Growing Degree Days 18 (Base 50)    
Moisture  
Dew Point 46 °F    
Average Humidity 53    
Maximum Humidity 98    
Minimum Humidity 26    
Precipitation  
Precipitation 0.00 in 0.01 in - ()
Sea Level Pressure  
Sea Level Pressure 30.03 in    
Wind  
Wind Speed 2 mph ()    
Max Wind Speed 17 mph    
Max Gust Speed 18 mph    
Visibility 7.4 miles    
Events      
T = Trace of Precipitation, MM = Missing Value Source: Averaged Metar Reports

Daily Weather History Graph

Daily Weather History Graph

Search for Another Location

Airport or City:

Trip Planner

Search our weather history database for the weather conditions in past years. The results will help you decide how hot, cold, wet, or windy it might be!

Date:

Astronomy

Mar. 19, 2014 Rise Set
Actual Time 6:48 AM CST 6:54 PM CST
Civil Twilight 6:27 AM CST 7:16 PM CST
Nautical Twilight 6:01 AM CST 7:42 PM CST
Astronomical Twilight 5:35 AM CST 8:08 PM CST
Moon 9:46 PM CST (3/19) 8:40 AM CST (3/19)
Length of Visible Light 12h 49m
Length of Day
12h 05m
Waning Gibbous, 91% of the Moon is Illuminated
Mar 19
Waning Gibbous
Mar 23
Last Quarter
Mar 30
New
Apr 7
First Quarter
Apr 15
Full

Hourly Weather History & Observations

Time (CST) Temp. Dew Point Humidity Pressure Visibility Wind Dir Wind Speed Gust Speed Precip Events Conditions
12:41 AM 55.4 °F 42.8 °F 63% 30.18 in 7.0 mi Calm Calm - N/A   Clear
1:41 AM 53.6 °F 41.0 °F 62% 30.18 in 7.0 mi Calm Calm - N/A   Clear
2:55 AM 54 °F 52 °F 92% 29.82 in 5 mi SSW 2.2 mph - -  
3:10 AM 48.2 °F 41.0 °F 76% 29.83 in 7.0 mi Calm Calm - N/A   Clear
3:40 AM 46.4 °F 39.2 °F 76% 30.16 in 7.0 mi Calm Calm - N/A   Clear
4:40 AM 48.2 °F 41.0 °F 76% 30.16 in 7.0 mi Calm Calm - N/A   Clear
5:45 AM 44.6 °F 39.2 °F 81% 29.88 in 7.0 mi Calm Calm - N/A   Clear
5:55 AM 50 °F 50 °F 98% 29.91 in 5 mi SSW 2.2 mph - -  
6:46 AM 44.6 °F 39.2 °F 81% 30.20 in 7.0 mi Calm Calm - N/A   Clear
7:34 AM 48.2 °F 39.2 °F 71% 30.22 in 8.0 mi Calm Calm - N/A   Clear
7:46 AM 51.8 °F 41.0 °F 67% 30.22 in 8.0 mi Calm Calm - N/A   Clear
8:09 AM 55.4 °F 41.0 °F 58% 30.23 in 8.0 mi WSW 4.6 mph - N/A   Clear
8:47 AM 59.0 °F 42.8 °F 55% 29.91 in 8.0 mi Calm Calm - N/A   Clear
8:50 AM 55 °F 46 °F 63% 30.01 in 9 mi SW 2.2 mph - -  
9:02 AM 62.6 °F 42.8 °F 48% 30.25 in 8.0 mi West 4.6 mph - N/A   Clear
9:42 AM 64.4 °F 42.8 °F 45% 30.25 in 8.0 mi Calm Calm - N/A   Clear
10:11 AM 68.0 °F 44.6 °F 43% 30.25 in 8.0 mi Calm Calm - N/A   Clear
10:45 AM 71.6 °F 48.2 °F 43% 30.25 in 8.0 mi Calm Calm - N/A   Clear
11:19 AM 75.2 °F 50.0 °F 41% 30.23 in 8.0 mi ESE 8.1 mph - N/A   Clear
11:44 AM 77.0 °F 48.2 °F 36% 29.82 in 8.0 mi SSE 4.6 mph - N/A   Partly Cloudy
11:50 AM 78 °F 50 °F 26% 29.95 in 9 mi NW 2.2 mph - -   Partly Cloudy
12:27 PM 80.6 °F 48.2 °F 32% 30.20 in 8.0 mi South 8.1 mph - N/A   Scattered Clouds
12:46 PM 80.6 °F 48.2 °F 32% 30.19 in 8.0 mi SW 11.5 mph - N/A   Scattered Clouds
1:46 PM 80.6 °F 48.2 °F 32% 30.18 in 8.0 mi South 6.9 mph 18.4 mph N/A   Scattered Clouds
2:44 PM 82.4 °F 48.2 °F 30% 29.67 in 8.0 mi East 9.2 mph - N/A   Scattered Clouds
2:50 PM 86 °F 57 °F 27% 29.75 in 9 mi SSW 2.2 mph - -   Partly Cloudy
3:45 PM 82.4 °F 46.4 °F 28% 30.11 in 8.0 mi SE 8.1 mph - N/A   Partly Cloudy
4:42 PM 82.4 °F 48.2 °F 30% 30.10 in 8.0 mi SSE 17.3 mph - N/A   Partly Cloudy
5:48 PM 78.8 °F 48.2 °F 34% 29.76 in 7.0 mi South 10.4 mph - N/A   Scattered Clouds
5:50 PM 79 °F 51 °F 27% 29.63 in 9 mi South 2.2 mph - -   Partly Cloudy
6:47 PM 73.4 °F 48.2 °F 41% 30.12 in 7.0 mi South 9.2 mph - N/A   Clear
7:46 PM 69.8 °F 48.2 °F 46% 30.15 in 7.0 mi Calm Calm - N/A   Clear
8:44 PM 68.0 °F 48.2 °F 49% 29.74 in 7.0 mi West 8.1 mph - N/A   Clear
8:50 PM 70 °F 54 °F 46% 29.65 in 5 mi SW 2.2 mph - -  
9:57 PM 62.6 °F 48.2 °F 59% 30.19 in 7.0 mi SW 4.6 mph - N/A   Clear
10:43 PM 62.6 °F 48.2 °F 59% 30.20 in 7.0 mi Calm Calm - N/A   Clear
11:45 PM 57.2 °F 46.4 °F 67% 29.81 in 7.0 mi Calm Calm - N/A   Clear
11:50 PM 64 °F 52 °F 55% 29.72 in 5 mi South 2.2 mph - -